| time (UTC) | temp F | wind direction | speed MPH | gust MPH | rain 1hr in | rain 24hr in | rain mn in | humidity % | barometer mb |
| 20260906064600 | 74 | 352 | 1.0 | 4.0 | 0.00 | 0.02 | 0.00 | 88 | 1011.5 |
| 20260906063102 | 74 | 315 | 2.0 | 5.0 | 0.00 | 0.02 | 0.00 | 88 | 1011.9 |
| 20260906061558 | 74 | 0 | 1.0 | 4.0 | 0.00 | 0.02 | 0.00 | 89 | 1012.2 |
| 20260906060056 | 74 | 0 | 1.0 | 5.0 | 0.00 | 0.02 | 0.00 | 90 | 1012.2 |
| 20260906054601 | 74 | 0 | 0.0 | 5.0 | 0.00 | 0.02 | 0.00 | 90 | 1012.4 |
| 20260906053057 | 74 | 360 | 3.0 | 6.0 | 0.00 | 0.02 | 0.00 | 90 | 1012.5 |
| 20260906051557 | 74 | 327 | 3.0 | 6.0 | 0.00 | 0.02 | 0.00 | 91 | 1012.7 |
| 20260906050132 | 73 | 355 | 0.0 | 2.0 | 0.00 | 0.02 | 0.00 | 93 | 1012.8 |
| 20260906044558 | 73 | 341 | 2.0 | 3.0 | 0.00 | 0.02 | 0.00 | 93 | 1012.9 |
| 20260906043108 | 73 | 0 | 0.0 | 1.0 | 0.00 | 0.02 | 0.00 | 93 | 1012.8 |
| 20260906041555 | 73 | 0 | 0.0 | 1.0 | 0.00 | 0.02 | 0.00 | 93 | 1012.8 |
| 20260906040112 | 73 | 0 | 0.0 | 2.0 | 0.00 | 0.02 | 0.00 | 92 | 1013.0 |
| 20260906034559 | 73 | 0 | 0.0 | 0.0 | 0.00 | 0.02 | 0.02 | 93 | 1013.1 |
| 20260906033056 | 73 | 0 | 0.0 | 0.0 | 0.00 | 0.02 | 0.02 | 93 | 1013.1 |
| 20260906031556 | 74 | 0 | 0.0 | 1.0 | 0.00 | 0.02 | 0.02 | 91 | 1013.2 |
| 20260906030134 | 74 | 0 | 0.0 | 1.0 | 0.00 | 0.02 | 0.02 | 90 | 1013.0 |
| 20260906024603 | 75 | 0 | 0.0 | 0.0 | 0.00 | 0.02 | 0.02 | 90 | 1012.9 |
| 20260906023103 | 75 | 0 | 0.0 | 0.0 | 0.00 | 0.02 | 0.02 | 89 | 1012.8 |
| 20260906021613 | 75 | 0 | 0.0 | 0.0 | 0.00 | 0.02 | 0.02 | 89 | 1012.5 |
| 20260906020107 | 76 | 0 | 0.0 | 2.0 | 0.00 | 0.02 | 0.02 | 88 | 1012.6 |
| 20260906014604 | 76 | 239 | 0.0 | 2.0 | 0.00 | 0.02 | 0.02 | 87 | 1012.7 |
| 20260906013058 | 77 | 0 | 0.0 | 3.0 | 0.00 | 0.02 | 0.02 | 85 | 1012.5 |
| 20260906011601 | 77 | 351 | 2.0 | 3.0 | 0.00 | 0.02 | 0.02 | 85 | 1012.3 |
| 20260906010059 | 78 | 0 | 0.0 | 0.0 | 0.00 | 0.02 | 0.02 | 84 | 1012.2 |
| 20260906004557 | 78 | 0 | 0.0 | 0.0 | 0.00 | 0.02 | 0.02 | 86 | 1012.1 |
| 20260906003106 | 79 | 0 | 0.0 | 0.0 | 0.00 | 0.02 | 0.02 | 84 | 1012.0 |
| 20260906001557 | 81 | 0 | 0.0 | 0.0 | 0.00 | 0.02 | 0.02 | 79 | 1011.8 |
| 20260906000057 | 82 | 0 | 0.0 | 0.0 | 0.00 | 0.02 | 0.02 | 74 | 1011.4 |
| 20260905234614 | 83 | 0 | 0.0 | 2.0 | 0.00 | 0.02 | 0.02 | 72 | 1011.3 |
| 20260905233104 | 84 | 230 | 0.0 | 2.0 | 0.00 | 0.02 | 0.02 | 72 | 1011.4 |
| 20260905231609 | 85 | 230 | 1.0 | 4.0 | 0.00 | 0.02 | 0.02 | 71 | 1011.3 |
| 20260905230108 | 85 | 261 | 3.0 | 5.0 | 0.00 | 0.02 | 0.02 | 69 | 1011.4 |
| 20260905224610 | 86 | 305 | 2.0 | 4.0 | 0.00 | 0.02 | 0.02 | 67 | 1011.2 |
| 20260905223107 | 86 | 19 | 0.0 | 4.0 | 0.00 | 0.02 | 0.02 | 68 | 1011.3 |
| 20260905221555 | 86 | 11 | 2.0 | 6.0 | 0.00 | 0.02 | 0.02 | 67 | 1011.3 |
| 20260905220055 | 86 | 324 | 1.0 | 4.0 | 0.00 | 0.02 | 0.02 | 67 | 1011.3 |
| 20260905214610 | 85 | 0 | 1.0 | 4.0 | 0.00 | 0.02 | 0.02 | 68 | 1011.6 |
| 20260905213106 | 83 | 303 | 1.0 | 3.0 | 0.00 | 0.02 | 0.02 | 69 | 1012.1 |
| 20260905211556 | 82 | 211 | 1.0 | 5.0 | 0.00 | 0.02 | 0.02 | 71 | 1012.2 |
| 20260905210100 | 82 | 219 | 3.0 | 5.0 | 0.00 | 0.02 | 0.02 | 71 | 1012.1 |
| 20260905204605 | 80 | 232 | 3.0 | 8.0 | 0.00 | 0.02 | 0.02 | 75 | 1012.2 |
| 20260905203105 | 79 | 247 | 4.0 | 9.0 | 0.00 | 0.02 | 0.02 | 79 | 1012.3 |
| 20260905201608 | 78 | 239 | 3.0 | 8.0 | 0.00 | 0.02 | 0.02 | 84 | 1012.3 |
| 20260905200059 | 78 | 0 | 1.0 | 3.0 | 0.00 | 0.02 | 0.02 | 79 | 1012.3 |
| 20260905194604 | 77 | 284 | 1.0 | 3.0 | 0.00 | 0.02 | 0.02 | 81 | 1013.1 |
| 20260905193058 | 77 | 292 | 1.0 | 4.0 | 0.01 | 0.02 | 0.02 | 81 | 1013.2 |
| 20260905191612 | 77 | 279 | 1.0 | 5.0 | 0.02 | 0.02 | 0.02 | 86 | 1012.2 |
| 20260905184614 | 76 | 0 | 0.0 | 5.0 | 0.02 | 0.02 | 0.02 | 87 | 1011.7 |
| 20260905183106 | 75 | 108 | 2.0 | 8.0 | 0.01 | 0.01 | 0.01 | 87 | 1012.0 |
| 20260905181604 | 77 | 109 | 5.0 | 22.0 | 0.00 | 0.00 | 0.00 | 82 | 1012.5 |
| 20260905180110 | 89 | 306 | 13.0 | 23.0 | 0.00 | 0.00 | 0.00 | 55 | 1013.1 |
| 20260905174607 | 93 | 314 | 6.0 | 12.0 | 0.00 | 0.00 | 0.00 | 55 | 1012.7 |
| 20260905173113 | 94 | 338 | 4.0 | 13.0 | 0.00 | 0.00 | 0.00 | 56 | 1013.0 |
| 20260905171605 | 94 | 254 | 4.0 | 11.0 | 0.00 | 0.00 | 0.00 | 58 | 1013.2 |
| 20260905170106 | 93 | 309 | 3.0 | 14.0 | 0.00 | 0.00 | 0.00 | 54 | 1013.3 |
| 20260905164606 | 93 | 9 | 2.0 | 11.0 | 0.00 | 0.00 | 0.00 | 56 | 1013.6 |
| 20260905163108 | 92 | 219 | 5.0 | 10.0 | 0.00 | 0.00 | 0.00 | 62 | 1013.8 |
| 20260905161604 | 92 | 333 | 3.0 | 10.0 | 0.00 | 0.00 | 0.00 | 62 | 1014.1 |
| 20260905160131 | 91 | 259 | 4.0 | 7.0 | 0.00 | 0.00 | 0.00 | 64 | 1014.3 |
| 20260905154604 | 90 | 223 | 3.0 | 8.0 | 0.00 | 0.00 | 0.00 | 68 | 1014.1 |
| 20260905153059 | 88 | 190 | 2.0 | 8.0 | 0.00 | 0.00 | 0.00 | 69 | 1014.1 |
| 20260905151602 | 88 | 222 | 5.0 | 9.0 | 0.00 | 0.00 | 0.00 | 73 | 1014.1 |
| 20260905150057 | 87 | 232 | 3.0 | 6.0 | 0.00 | 0.00 | 0.00 | 73 | 1014.1 |
| 20260905144606 | 86 | 265 | 4.0 | 8.0 | 0.00 | 0.00 | 0.00 | 75 | 1014.2 |
| 20260905143058 | 85 | 178 | 3.0 | 8.0 | 0.00 | 0.00 | 0.00 | 78 | 1014.1 |
| 20260905141610 | 84 | 250 | 4.0 | 8.0 | 0.00 | 0.00 | 0.00 | 80 | 1014.0 |
| 20260905140107 | 83 | 242 | 3.0 | 6.0 | 0.00 | 0.00 | 0.00 | 81 | 1014.0 |
| 20260905134605 | 82 | 253 | 4.0 | 7.0 | 0.00 | 0.00 | 0.00 | 82 | 1014.3 |
| 20260905133101 | 81 | 251 | 2.0 | 7.0 | 0.00 | 0.00 | 0.00 | 84 | 1014.5 |
| 20260905131600 | 80 | 281 | 2.0 | 6.0 | 0.00 | 0.00 | 0.00 | 83 | 1014.2 |
| 20260905130058 | 79 | 318 | 1.0 | 5.0 | 0.00 | 0.00 | 0.00 | 87 | 1014.3 |
| 20260905124605 | 77 | 313 | 2.0 | 4.0 | 0.00 | 0.00 | 0.00 | 90 | 1014.4 |
| 20260905123102 | 76 | 224 | 2.0 | 4.0 | 0.00 | 0.00 | 0.00 | 92 | 1014.5 |
| 20260905121606 | 75 | 216 | 2.0 | 4.0 | 0.00 | 0.00 | 0.00 | 93 | 1014.5 |
| 20260905120107 | 74 | 0 | 0.0 | 0.0 | 0.00 | 0.00 | 0.00 | 94 | 1014.2 |
| 20260905114636 | 73 | 0 | 0.0 | 0.0 | 0.00 | 0.00 | 0.00 | 94 | 1014.1 |
| 20260905113102 | 73 | 0 | 0.0 | 0.0 | 0.00 | 0.00 | 0.00 | 95 | 1013.9 |
| 20260905111558 | 73 | 0 | 0.0 | 0.0 | 0.00 | 0.00 | 0.00 | 95 | 1013.8 |
| 20260905110056 | 73 | 0 | 0.0 | 0.0 | 0.00 | 0.00 | 0.00 | 95 | 1013.6 |
| 20260905104559 | 73 | 0 | 0.0 | 0.0 | 0.00 | 0.00 | 0.00 | 95 | 1013.4 |
| 20260905103105 | 73 | 0 | 0.0 | 0.0 | 0.00 | 0.00 | 0.00 | 94 | 1013.4 |
| 20260905101604 | 73 | 0 | 0.0 | 0.0 | 0.00 | 0.00 | 0.00 | 94 | 1013.2 |
| 20260905100113 | 74 | 0 | 0.0 | 0.0 | 0.00 | 0.00 | 0.00 | 94 | 1013.1 |
| 20260905094607 | 73 | 0 | 0.0 | 2.0 | 0.00 | 0.00 | 0.00 | 93 | 1013.2 |
| 20260905093104 | 74 | 244 | 0.0 | 2.0 | 0.00 | 0.00 | 0.00 | 93 | 1013.3 |
| 20260905091615 | 74 | 0 | 0.0 | 0.0 | 0.00 | 0.00 | 0.00 | 92 | 1013.2 |
| 20260905090058 | 74 | 0 | 0.0 | 0.0 | 0.00 | 0.00 | 0.00 | 92 | 1013.3 |
| 20260905084556 | 75 | 0 | 0.0 | 0.0 | 0.00 | 0.00 | 0.00 | 92 | 1013.4 |
| 20260905083104 | 75 | 0 | 0.0 | 0.0 | 0.00 | 0.00 | 0.00 | 92 | 1013.5 |
| 20260905081605 | 75 | 0 | 0.0 | 0.0 | 0.00 | 0.00 | 0.00 | 92 | 1013.4 |
| 20260905080059 | 75 | 0 | 0.0 | 3.0 | 0.00 | 0.00 | 0.00 | 91 | 1013.7 |
| 20260905074603 | 75 | 0 | 0.0 | 0.0 | 0.00 | 0.00 | 0.00 | 91 | 1013.7 |
| 20260905073110 | 75 | 0 | 0.0 | 1.0 | 0.00 | 0.00 | 0.00 | 91 | 1013.8 |
| 20260905071605 | 76 | 355 | 0.0 | 2.0 | 0.00 | 0.00 | 0.00 | 90 | 1013.9 |